Time,TemperatureF,DewpointF,PressureIn,WindDirection,WindDirectionDegrees,WindSpeedMPH,WindSpeedGustMPH,Humidity,HourlyPrecipIn,Conditions,Clouds,dailyrainin,SoftwareType,DateUTC
2013-03-09 00:03:00,36.0,23.0,30.14,NNE,26,4.0,14.0,60,0.01,,,0.28,,2013-03-09 05:03:00,
2013-03-09 00:12:00,36.0,23.0,30.14,NNE,26,4.0,14.0,60,0.01,,,0.28,,2013-03-09 05:12:00,
2013-03-09 00:22:00,36.0,23.0,30.14,NNE,26,5.0,11.0,60,0.01,,,0.28,,2013-03-09 05:22:00,
2013-03-09 00:32:00,35.0,23.0,30.14,NNE,19,5.0,11.0,61,0.00,,,0.54,,2013-03-09 05:32:00,
2013-03-09 00:43:00,35.0,23.0,30.14,NNE,19,5.0,11.0,61,0.00,,,0.54,,2013-03-09 05:43:00,
2013-03-09 00:52:00,35.0,23.0,30.14,NNE,28,4.0,11.0,61,0.00,,,0.54,,2013-03-09 05:52:00,
2013-03-09 01:02:00,35.0,23.0,30.14,NNE,29,4.0,10.0,62,0.00,,,0.54,,2013-03-09 06:02:00,
2013-03-09 01:11:00,35.0,23.0,30.14,NNE,29,4.0,10.0,62,0.00,,,0.54,,2013-03-09 06:11:00,
2013-03-09 01:22:00,35.0,23.0,30.14,NNE,29,4.0,10.0,62,0.00,,,0.54,,2013-03-09 06:22:00,
2013-03-09 01:32:00,34.0,22.0,30.15,NNE,21,3.0,8.0,62,0.00,,,0.54,,2013-03-09 06:32:00,
2013-03-09 01:42:00,34.0,22.0,30.15,NNE,21,3.0,8.0,62,0.00,,,0.54,,2013-03-09 06:42:00,
2013-03-09 01:51:00,34.0,22.0,30.15,NNE,21,3.0,8.0,62,0.00,,,0.54,,2013-03-09 06:51:00,
2013-03-09 02:01:00,34.0,23.0,30.14,NNE,13,3.0,8.0,63,0.00,,,0.54,,2013-03-09 07:01:00,
2013-03-09 02:11:00,34.0,23.0,30.14,NNE,13,3.0,8.0,63,0.00,,,0.54,,2013-03-09 07:11:00,
2013-03-09 02:21:00,33.0,22.0,30.14,NE,34,6.0,13.0,64,0.00,,,0.54,,2013-03-09 07:21:00,
2013-03-09 02:32:00,33.0,22.0,30.14,NNE,21,6.0,13.0,64,0.00,,,0.54,,2013-03-09 07:32:00,
2013-03-09 02:42:00,33.0,22.0,30.14,NNE,21,6.0,13.0,64,0.00,,,0.54,,2013-03-09 07:42:00,
2013-03-09 02:52:00,33.0,23.0,30.14,NNE,17,4.0,12.0,65,0.00,,,0.54,,2013-03-09 07:52:00,
2013-03-09 03:01:00,33.0,23.0,30.14,NNE,21,4.0,11.0,65,0.00,,,0.54,,2013-03-09 08:01:00,
2013-03-09 03:11:00,33.0,23.0,30.14,NNE,21,4.0,11.0,65,0.00,,,0.54,,2013-03-09 08:11:00,
2013-03-09 03:22:00,33.0,23.0,30.14,NNE,13,4.0,12.0,65,0.00,,,0.54,,2013-03-09 08:22:00,
2013-03-09 03:32:00,33.0,23.0,30.14,NE,35,5.0,8.0,65,0.00,,,0.54,,2013-03-09 08:32:00,
2013-03-09 03:42:00,33.0,23.0,30.14,NE,35,5.0,8.0,65,0.00,,,0.54,,2013-03-09 08:42:00,
2013-03-09 03:52:00,33.0,23.0,30.14,North,8,3.0,14.0,65,0.00,,,0.54,,2013-03-09 08:52:00,
2013-03-09 04:02:00,33.0,23.0,30.14,NNE,20,4.0,9.0,65,0.00,,,0.54,,2013-03-09 09:02:00,
2013-03-09 04:12:00,33.0,23.0,30.14,NNE,20,4.0,9.0,65,0.00,,,0.54,,2013-03-09 09:12:00,
2013-03-09 04:21:00,33.0,22.0,30.14,NNE,14,4.0,7.0,64,0.00,,,0.54,,2013-03-09 09:21:00,
2013-03-09 04:32:00,33.0,22.0,30.14,NNE,23,2.0,10.0,64,0.00,,,0.54,,2013-03-09 09:32:00,
2013-03-09 04:42:00,33.0,22.0,30.14,NNE,23,2.0,10.0,64,0.00,,,0.54,,2013-03-09 09:42:00,
2013-03-09 04:52:00,33.0,22.0,30.14,NNE,23,2.0,10.0,64,0.00,,,0.54,,2013-03-09 09:52:00,
2013-03-09 05:01:00,32.0,22.0,30.16,NE,40,4.0,8.0,65,0.00,,,0.54,,2013-03-09 10:01:00,
2013-03-09 05:11:00,32.0,22.0,30.16,NE,40,4.0,8.0,65,0.00,,,0.54,,2013-03-09 10:11:00,
2013-03-09 05:22:00,32.0,22.0,30.17,NE,36,4.0,12.0,65,0.00,,,0.54,,2013-03-09 10:22:00,
2013-03-09 05:32:00,32.0,22.0,30.17,NNE,18,5.0,10.0,65,0.00,,,0.54,,2013-03-09 10:32:00,
2013-03-09 05:42:00,32.0,22.0,30.17,NNE,18,5.0,10.0,65,0.00,,,0.54,,2013-03-09 10:42:00,
2013-03-09 05:52:00,32.0,22.0,30.18,NNE,26,6.0,14.0,65,0.00,,,0.54,,2013-03-09 10:52:00,
2013-03-09 06:01:00,32.0,21.0,30.18,NNE,22,3.0,10.0,64,0.00,,,0.54,,2013-03-09 11:01:00,
2013-03-09 06:11:00,32.0,21.0,30.18,NNE,22,3.0,10.0,64,0.00,,,0.54,,2013-03-09 11:11:00,
2013-03-09 06:21:00,32.0,21.0,30.18,NNE,21,3.0,10.0,64,0.00,,,0.54,,2013-03-09 11:21:00,
2013-03-09 06:32:00,32.0,21.0,30.18,NNE,25,6.0,16.0,64,0.00,,,0.54,,2013-03-09 11:32:00,
2013-03-09 06:42:00,32.0,21.0,30.18,NNE,25,6.0,16.0,64,0.00,,,0.54,,2013-03-09 11:42:00,
2013-03-09 06:52:00,33.0,22.0,30.18,NNE,28,7.0,14.0,64,0.00,,,0.54,,2013-03-09 11:52:00,
2013-03-09 07:02:00,33.0,22.0,30.19,NNE,26,4.0,14.0,63,0.00,,,0.54,,2013-03-09 12:02:00,
2013-03-09 07:11:00,33.0,22.0,30.19,NNE,26,4.0,14.0,63,0.00,,,0.54,,2013-03-09 12:11:00,
2013-03-09 07:21:00,33.0,21.0,30.20,NNE,33,4.0,9.0,62,0.00,,,0.54,,2013-03-09 12:21:00,
2013-03-09 07:32:00,34.0,22.0,30.20,NNE,32,6.0,11.0,60,0.00,,,0.54,,2013-03-09 12:32:00,
2013-03-09 07:42:00,34.0,22.0,30.20,NNE,32,6.0,11.0,60,0.00,,,0.54,,2013-03-09 12:42:00,
2013-03-09 07:52:00,35.0,22.0,30.20,NNE,28,6.0,13.0,59,0.00,,,0.54,,2013-03-09 12:52:00,
2013-03-09 08:02:00,36.0,22.0,30.20,NNE,31,5.0,9.0,57,0.01,,,0.55,,2013-03-09 13:02:00,
2013-03-09 08:11:00,36.0,22.0,30.20,NNE,31,5.0,9.0,57,0.01,,,0.55,,2013-03-09 13:11:00,
2013-03-09 08:21:00,36.0,22.0,30.20,NNE,27,5.0,12.0,56,0.01,,,0.55,,2013-03-09 13:21:00,
2013-03-09 08:32:00,38.0,23.0,30.21,NNE,20,3.0,10.0,54,0.01,,,0.56,,2013-03-09 13:32:00,
2013-03-09 08:42:00,38.0,23.0,30.21,NNE,20,3.0,10.0,54,0.01,,,0.56,,2013-03-09 13:42:00,
2013-03-09 08:52:00,38.0,22.0,30.22,NNE,26,3.0,10.0,53,0.02,,,0.28,,2013-03-09 13:52:00,
2013-03-09 09:01:00,39.0,21.0,30.21,NNE,31,4.0,7.0,49,0.04,,,0.30,,2013-03-09 14:01:00,
2013-03-09 09:11:00,39.0,21.0,30.21,NNE,31,4.0,7.0,49,0.04,,,0.30,,2013-03-09 14:11:00,
2013-03-09 09:21:00,39.0,21.0,30.21,NNE,31,4.0,7.0,49,0.04,,,0.30,,2013-03-09 14:21:00,
2013-03-09 09:32:00,41.0,23.0,30.22,NNE,16,3.0,10.0,49,0.04,,,0.36,,2013-03-09 14:32:00,
2013-03-09 09:42:00,41.0,23.0,30.22,NNE,16,3.0,10.0,49,0.04,,,0.36,,2013-03-09 14:42:00,
2013-03-09 09:52:00,41.0,23.0,30.22,NNE,13,4.0,8.0,49,0.05,,,0.37,,2013-03-09 14:52:00,
2013-03-09 10:02:00,42.0,23.0,30.22,NNW,343,4.0,7.0,46,0.09,,,0.41,,2013-03-09 15:02:00,
2013-03-09 10:12:00,42.0,23.0,30.22,NNW,343,4.0,7.0,46,0.09,,,0.41,,2013-03-09 15:12:00,
2013-03-09 10:22:00,42.0,23.0,30.22,NNE,14,4.0,8.0,46,0.10,,,0.42,,2013-03-09 15:22:00,
2013-03-09 10:32:00,43.0,23.0,30.23,North,8,4.0,9.0,44,0.02,,,0.44,,2013-03-09 15:32:00,
2013-03-09 10:42:00,43.0,23.0,30.23,North,8,4.0,9.0,44,0.02,,,0.44,,2013-03-09 15:42:00,
2013-03-09 10:52:00,44.0,22.0,30.22,NNW,341,2.0,9.0,42,0.03,,,0.45,,2013-03-09 15:52:00,
2013-03-09 11:01:00,44.0,22.0,30.22,NNW,341,2.0,9.0,42,0.03,,,0.45,,2013-03-09 16:01:00,
2013-03-09 11:11:00,44.0,22.0,30.22,NNW,341,2.0,9.0,42,0.03,,,0.45,,2013-03-09 16:11:00,
2013-03-09 11:21:00,44.0,21.0,30.22,NNE,29,2.0,9.0,39,0.05,,,0.47,,2013-03-09 16:21:00,
2013-03-09 11:32:00,46.0,22.0,30.22,NNE,13,2.0,8.0,39,0.01,,,0.48,,2013-03-09 16:32:00,
2013-03-09 11:42:00,46.0,22.0,30.22,NNE,13,2.0,8.0,39,0.01,,,0.48,,2013-03-09 16:42:00,
2013-03-09 11:52:00,46.0,22.0,30.22,NNE,13,2.0,8.0,39,0.01,,,0.48,,2013-03-09 16:52:00,
2013-03-09 12:01:00,46.0,19.0,30.22,NNE,26,3.0,15.0,33,0.01,,,0.48,,2013-03-09 17:01:00,
2013-03-09 12:11:00,46.0,19.0,30.22,NNE,26,3.0,15.0,33,0.01,,,0.48,,2013-03-09 17:11:00,
2013-03-09 12:22:00,47.0,20.0,30.22,NNE,29,5.0,10.0,34,0.01,,,0.48,,2013-03-09 17:22:00,
2013-03-09 12:32:00,48.0,19.0,30.21,NNE,33,6.0,8.0,31,0.00,,,0.47,,2013-03-09 17:32:00,
2013-03-09 12:42:00,48.0,19.0,30.21,NNE,33,6.0,8.0,31,0.00,,,0.47,,2013-03-09 17:42:00,
2013-03-09 12:52:00,48.0,19.0,30.20,NNE,30,4.0,9.0,31,0.00,,,0.47,,2013-03-09 17:52:00,
2013-03-09 13:02:00,49.0,21.0,30.20,NE,35,4.0,8.0,33,0.00,,,0.47,,2013-03-09 18:02:00,
2013-03-09 13:11:00,49.0,21.0,30.20,NE,35,4.0,8.0,33,0.00,,,0.47,,2013-03-09 18:11:00,
2013-03-09 13:21:00,49.0,18.0,30.19,NE,37,4.0,9.0,29,0.00,,,0.47,,2013-03-09 18:21:00,
2013-03-09 13:32:00,49.0,16.0,30.19,North,2,4.0,10.0,27,0.00,,,0.47,,2013-03-09 18:32:00,
2013-03-09 13:42:00,49.0,16.0,30.19,North,2,4.0,10.0,27,0.00,,,0.47,,2013-03-09 18:42:00,
2013-03-09 13:52:00,49.0,16.0,30.18,NNE,19,4.0,8.0,26,0.00,,,0.47,,2013-03-09 18:52:00,
2013-03-09 14:01:00,50.0,18.0,30.18,NNE,31,2.0,8.0,28,0.00,,,0.47,,2013-03-09 19:01:00,
2013-03-09 14:12:00,50.0,18.0,30.18,NNE,31,2.0,8.0,28,0.00,,,0.47,,2013-03-09 19:12:00,
2013-03-09 14:22:00,50.0,18.0,30.18,NNE,31,2.0,8.0,28,0.00,,,0.47,,2013-03-09 19:22:00,
2013-03-09 14:32:00,50.0,18.0,30.18,NE,35,1.0,6.0,28,0.00,,,0.45,,2013-03-09 19:32:00,
2013-03-09 14:42:00,50.0,18.0,30.18,NE,35,1.0,6.0,28,0.00,,,0.45,,2013-03-09 19:42:00,
2013-03-09 14:51:00,50.0,17.0,30.18,NNE,24,2.0,7.0,27,0.00,,,0.45,,2013-03-09 19:51:00,
2013-03-09 15:02:00,50.0,16.0,30.18,NW,310,1.0,5.0,25,0.00,,,0.45,,2013-03-09 20:02:00,
2013-03-09 15:11:00,50.0,16.0,30.18,NW,310,1.0,5.0,25,0.00,,,0.45,,2013-03-09 20:11:00,
2013-03-09 15:22:00,50.0,16.0,30.18,NW,310,1.0,5.0,25,0.00,,,0.45,,2013-03-09 20:22:00,
2013-03-09 15:32:00,51.0,16.0,30.19,NNE,21,3.0,8.0,25,0.00,,,0.43,,2013-03-09 20:32:00,
2013-03-09 15:42:00,51.0,16.0,30.19,NNE,21,3.0,8.0,25,0.00,,,0.43,,2013-03-09 20:42:00,
2013-03-09 15:52:00,51.0,16.0,30.19,NE,41,3.0,6.0,24,0.00,,,0.43,,2013-03-09 20:52:00,
2013-03-09 16:02:00,51.0,16.0,30.19,NNW,346,1.0,6.0,24,0.00,,,0.42,,2013-03-09 21:02:00,
2013-03-09 16:12:00,51.0,16.0,30.19,NNW,346,1.0,6.0,24,0.00,,,0.42,,2013-03-09 21:12:00,
2013-03-09 16:22:00,51.0,16.0,30.20,NNE,12,3.0,5.0,24,0.00,,,0.41,,2013-03-09 21:22:00,
2013-03-09 16:32:00,50.0,18.0,30.20,NNW,328,1.0,5.0,28,0.00,,,0.40,,2013-03-09 21:32:00,
2013-03-09 16:42:00,50.0,18.0,30.20,NNW,328,1.0,5.0,28,0.00,,,0.40,,2013-03-09 21:42:00,
2013-03-09 16:52:00,50.0,18.0,30.20,NNW,328,1.0,5.0,28,0.00,,,0.40,,2013-03-09 21:52:00,
2013-03-09 17:01:00,50.0,15.0,30.19,ENE,61,1.0,6.0,24,0.00,,,0.38,,2013-03-09 22:01:00,
2013-03-09 17:11:00,50.0,15.0,30.19,ENE,61,1.0,6.0,24,0.00,,,0.38,,2013-03-09 22:11:00,
2013-03-09 17:21:00,50.0,16.0,30.20,NNE,30,4.0,11.0,25,0.00,,,0.38,,2013-03-09 22:21:00,
2013-03-09 17:32:00,49.0,15.0,30.19,NNE,29,4.0,9.0,25,0.00,,,0.37,,2013-03-09 22:32:00,
2013-03-09 17:42:00,49.0,15.0,30.19,NNE,29,4.0,9.0,25,0.00,,,0.37,,2013-03-09 22:42:00,
2013-03-09 17:51:00,49.0,15.0,30.20,NE,34,2.0,6.0,25,0.00,,,0.36,,2013-03-09 22:51:00,
2013-03-09 18:01:00,48.0,15.0,30.21,NNW,348,1.0,3.0,26,0.00,,,0.35,,2013-03-09 23:01:00,
2013-03-09 18:11:00,48.0,15.0,30.21,NNW,348,1.0,3.0,26,0.00,,,0.35,,2013-03-09 23:11:00,
2013-03-09 18:21:00,48.0,15.0,30.21,NNW,348,1.0,3.0,26,0.00,,,0.35,,2013-03-09 23:21:00,
2013-03-09 18:32:00,47.0,14.0,30.21,NNE,31,1.0,4.0,26,0.00,,,0.33,,2013-03-09 23:32:00,
2013-03-09 18:42:00,47.0,14.0,30.21,NNE,31,1.0,4.0,26,0.00,,,0.33,,2013-03-09 23:42:00,
2013-03-09 18:52:00,46.0,13.0,30.22,NE,40,1.0,5.0,26,0.00,,,0.32,,2013-03-09 23:52:00,
2013-03-09 19:02:00,46.0,12.0,30.23,NNE,19,0.0,2.0,25,0.00,,,0.31,,2013-03-10 00:02:00,
2013-03-09 19:11:00,46.0,12.0,30.23,NNE,19,0.0,2.0,25,0.00,,,0.31,,2013-03-10 00:11:00,
2013-03-09 19:22:00,46.0,13.0,30.23,NNE,19,1.0,2.0,26,0.00,,,0.30,,2013-03-10 00:22:00,
2013-03-09 19:32:00,45.0,13.0,30.23,NNE,33,2.0,6.0,27,0.00,,,0.29,,2013-03-10 00:32:00,
2013-03-09 19:42:00,45.0,13.0,30.23,NNE,33,2.0,6.0,27,0.00,,,0.29,,2013-03-10 00:42:00,
2013-03-09 19:52:00,45.0,13.0,30.23,NNE,27,1.0,4.0,27,0.00,,,0.28,,2013-03-10 00:52:00,
2013-03-09 20:01:00,45.0,14.0,30.24,NNE,27,3.0,6.0,28,0.00,,,0.27,,2013-03-10 01:01:00,
2013-03-09 20:11:00,45.0,14.0,30.24,NNE,27,3.0,6.0,28,0.00,,,0.27,,2013-03-10 01:11:00,
2013-03-09 20:21:00,44.0,13.0,30.24,NNE,22,2.0,5.0,28,0.00,,,0.27,,2013-03-10 01:21:00,
2013-03-09 20:32:00,43.0,14.0,30.24,NNE,32,1.0,4.0,31,0.00,,,0.26,,2013-03-10 01:32:00,
2013-03-09 20:42:00,43.0,14.0,30.24,NNE,32,1.0,4.0,31,0.00,,,0.26,,2013-03-10 01:42:00,
2013-03-09 20:52:00,43.0,14.0,30.24,NNE,31,2.0,3.0,30,0.00,,,0.25,,2013-03-10 01:52:00,
2013-03-09 21:01:00,43.0,14.0,30.24,NE,34,1.0,3.0,31,0.00,,,0.25,,2013-03-10 02:01:00,
2013-03-09 21:11:00,43.0,14.0,30.24,NE,34,1.0,3.0,31,0.00,,,0.25,,2013-03-10 02:11:00,
2013-03-09 21:22:00,43.0,14.0,30.24,NE,34,0.0,2.0,31,0.00,,,0.24,,2013-03-10 02:22:00,
2013-03-09 21:32:00,41.0,17.0,30.24,NE,34,0.0,1.0,37,0.00,,,0.24,,2013-03-10 02:32:00,
2013-03-09 21:42:00,41.0,17.0,30.24,NE,34,0.0,1.0,37,0.00,,,0.24,,2013-03-10 02:42:00,
2013-03-09 21:52:00,41.0,15.0,30.24,NE,34,0.0,0.0,35,0.00,,,0.23,,2013-03-10 02:52:00,
2013-03-09 22:02:00,40.0,14.0,30.24,NE,34,0.0,2.0,34,0.00,,,0.23,,2013-03-10 03:02:00,
2013-03-09 22:11:00,41.0,16.0,30.25,NE,34,0.0,0.0,36,0.00,,,0.22,,2013-03-10 03:11:00,
2013-03-09 22:22:00,41.0,16.0,30.25,NE,34,0.0,0.0,36,0.00,,,0.22,,2013-03-10 03:22:00,
2013-03-09 22:32:00,40.0,15.0,30.25,NE,34,0.0,0.0,36,0.00,,,0.22,,2013-03-10 03:32:00,
2013-03-09 22:42:00,40.0,15.0,30.25,NE,34,0.0,0.0,36,0.00,,,0.22,,2013-03-10 03:42:00,
2013-03-09 22:52:00,40.0,16.0,30.26,NE,34,0.0,0.0,37,0.00,,,0.21,,2013-03-10 03:52:00,
2013-03-09 23:01:00,40.0,16.0,30.26,NE,34,0.0,0.0,38,0.00,,,0.21,,2013-03-10 04:01:00,
2013-03-09 23:11:00,40.0,16.0,30.26,NE,34,0.0,0.0,38,0.00,,,0.21,,2013-03-10 04:11:00,
2013-03-09 23:21:00,39.0,16.0,30.26,NE,34,0.0,0.0,39,0.00,,,0.21,,2013-03-10 04:21:00,
2013-03-09 23:32:00,38.0,16.0,30.26,NE,34,0.0,0.0,41,0.00,,,0.21,,2013-03-10 04:32:00,
2013-03-09 23:42:00,38.0,16.0,30.26,NE,34,0.0,0.0,41,0.00,,,0.21,,2013-03-10 04:42:00,
2013-03-09 23:52:00,38.0,17.0,30.26,NE,34,0.0,0.0,42,0.00,,,0.20,,2013-03-10 04:52:00,